• In Hungary
  • List of Countries
  • For 7 days
  • Water Temperature
  • Satellite Maps
  • Weather Map
  • News
  • Weather Widgets
  • user-avatar
    Login

    Hourly Weather Glowczyce

    Today, 18 November, Saturday

    Time Temperature Precipitation Wind Pressure Humidity
    00:00 +2°C° 0.1 mm 7 mps 762 mmHg 88%
    01:00 +2°C° 0 mm 7 mps 761 mmHg 88%
    02:00 +2°C° 0 mm 7 mps 761 mmHg 87%
    03:00 +2°C° 0 mm 7 mps 760 mmHg 87%
    04:00 +2°C° 0 mm 7 mps 760 mmHg 87%
    05:00 +1°C° 0.1 mm 8 mps 759 mmHg 86%
    06:00 +1°C° 0.1 mm 8 mps 759 mmHg 85%
    07:00 0°C° 0.1 mm 8 mps 758 mmHg 84%
    08:00 +1°C° 0 mm 9 mps 757 mmHg 82%
    09:00 +1°C° 0 mm 9 mps 757 mmHg 80%
    10:00 +1°C° 0 mm 9 mps 756 mmHg 78%
    11:00 +2°C° 0 mm 10 mps 755 mmHg 75%
    12:00 +2°C° 0 mm 10 mps 754 mmHg 72%
    13:00 +2°C° 0 mm 10 mps 753 mmHg 70%
    14:00 +2°C° 0.2 mm 10 mps 752 mmHg 70%
    15:00 +2°C° 0.2 mm 11 mps 752 mmHg 70%
    16:00 +2°C° 0.2 mm 11 mps 751 mmHg 70%
    17:00 +2°C° 0.8 mm 10 mps 750 mmHg 72%
    18:00 +2°C° 0.8 mm 9 mps 750 mmHg 75%
    19:00 +2°C° 0.8 mm 8 mps 749 mmHg 78%
    20:00 +2°C° 0.3 mm 8 mps 749 mmHg 77%
    21:00 +3°C° 0.3 mm 7 mps 749 mmHg 76%
    22:00 +3°C° 0.3 mm 7 mps 749 mmHg 76%
    23:00 +3°C° 0.2 mm 7 mps 749 mmHg 77%

    Tomorrow, 19 November, Sunday

    Time Temperature Precipitation Wind Pressure Humidity
    00:00 +2°C° 0.2 mm 7 mps 749 mmHg 79%
    01:00 +2°C° 0.2 mm 7 mps 749 mmHg 80%
    02:00 +1°C° 0.6 mm 8 mps 748 mmHg 81%
    03:00 +1°C° 0.6 mm 8 mps 748 mmHg 81%
    04:00 +2°C° 0.6 mm 8 mps 747 mmHg 81%
    05:00 +2°C° 0.5 mm 8 mps 747 mmHg 81%
    06:00 +2°C° 0.5 mm 8 mps 747 mmHg 80%
    07:00 +2°C° 0.5 mm 8 mps 746 mmHg 80%
    08:00 +2°C° 0.4 mm 8 mps 746 mmHg 79%
    09:00 +4°C° 0.4 mm 8 mps 746 mmHg 77%
    10:00 +4°C° 0.4 mm 8 mps 746 mmHg 76%
    11:00 +4°C° 0.3 mm 8 mps 746 mmHg 75%
    12:00 +4°C° 0.3 mm 8 mps 745 mmHg 74%
    13:00 +4°C° 0.3 mm 8 mps 745 mmHg 74%
    14:00 +4°C° 0.4 mm 8 mps 745 mmHg 75%
    15:00 +4°C° 0.4 mm 7 mps 745 mmHg 76%
    16:00 +4°C° 0.4 mm 7 mps 745 mmHg 77%
    17:00 +3°C° 0.4 mm 6 mps 745 mmHg 79%
    18:00 +3°C° 0.4 mm 6 mps 745 mmHg 80%
    19:00 +3°C° 0.4 mm 6 mps 746 mmHg 81%
    20:00 +3°C° 0.5 mm 6 mps 746 mmHg 81%
    21:00 +3°C° 0.5 mm 7 mps 747 mmHg 82%
    22:00 +3°C° 0.5 mm 7 mps 747 mmHg 82%
    23:00 +2°C° 0.5 mm 8 mps 748 mmHg 82%

    Day after tomorrow, 20 November, Monday

    Time Temperature Precipitation Wind Pressure Humidity
    00:00 +2°C° 0.5 mm 9 mps 749 mmHg 82%
    01:00 +2°C° 0.5 mm 10 mps 749 mmHg 81%
    02:00 +2°C° 0.2 mm 9 mps 750 mmHg 81%
    03:00 +2°C° 0.2 mm 9 mps 750 mmHg 80%
    04:00 +1°C° 0.2 mm 8 mps 751 mmHg 80%
    05:00 +1°C° 0 mm 8 mps 752 mmHg 78%
    06:00 +2°C° 0 mm 7 mps 752 mmHg 77%
    07:00 0°C° 0 mm 7 mps 753 mmHg 76%
    08:00 +2°C° 0 mm 7 mps 753 mmHg 73%
    09:00 +2°C° 0 mm 7 mps 754 mmHg 69%
    10:00 +2°C° 0 mm 7 mps 754 mmHg 66%
    11:00 +2°C° 0.1 mm 7 mps 754 mmHg 67%
    12:00 +3°C° 0.1 mm 7 mps 754 mmHg 67%
    13:00 +3°C° 0.1 mm 7 mps 755 mmHg 68%
    14:00 +2°C° 0.1 mm 6 mps 755 mmHg 71%
    15:00 +2°C° 0.1 mm 5 mps 755 mmHg 74%
    16:00 +1°C° 0.1 mm 4 mps 755 mmHg 77%
    17:00 +2°C° 0 mm 3 mps 755 mmHg 79%
    18:00 +1°C° 0 mm 3 mps 755 mmHg 80%
    19:00 +2°C° 0 mm 2 mps 755 mmHg 81%
    20:00 +1°C° 0 mm 2 mps 755 mmHg 82%
    21:00 +2°C° 0 mm 1 mps 755 mmHg 83%
    22:00 +2°C° 0 mm 1 mps 755 mmHg 84%
    23:00 +2°C° 0 mm 1 mps 755 mmHg 84%

    21 November, Tuesday

    Time Temperature Precipitation Wind Pressure Humidity
    00:00 +2°C° 0 mm 1 mps 755 mmHg 85%
    01:00 +2°C° 0 mm 1 mps 755 mmHg 85%
    02:00 +2°C° 0 mm 1 mps 755 mmHg 85%
    03:00 +1°C° 0 mm 1 mps 755 mmHg 85%
    04:00 +1°C° 0 mm 1 mps 755 mmHg 85%
    05:00 +1°C° 0 mm 1 mps 755 mmHg 86%
    06:00 +1°C° 0 mm 1 mps 755 mmHg 86%
    07:00 +1°C° 0 mm 1 mps 756 mmHg 87%
    08:00 +2°C° 0 mm 1 mps 756 mmHg 84%
    09:00 +3°C° 0 mm 1 mps 756 mmHg 81%
    10:00 +2°C° 0 mm 2 mps 757 mmHg 78%
    11:00 +3°C° 0 mm 2 mps 757 mmHg 76%
    12:00 +2°C° 0 mm 3 mps 757 mmHg 73%
    13:00 +3°C° 0 mm 3 mps 757 mmHg 71%
    14:00 +2°C° 0 mm 3 mps 757 mmHg 74%
    15:00 +2°C° 0 mm 3 mps 758 mmHg 77%
    16:00 +1°C° 0 mm 3 mps 758 mmHg 80%
    17:00 +1°C° 0 mm 3 mps 758 mmHg 81%
    18:00 +1°C° 0 mm 3 mps 759 mmHg 82%
    19:00 +1°C° 0 mm 2 mps 759 mmHg 82%
    20:00 +1°C° 0 mm 2 mps 759 mmHg 82%
    21:00 +1°C° 0 mm 2 mps 760 mmHg 82%
    22:00 +2°C° 0 mm 1 mps 760 mmHg 82%
    23:00 +1°C° 0 mm 2 mps 760 mmHg 83%

    22 November, Wednesday

    Time Temperature Precipitation Wind Pressure Humidity
    00:00 +1°C° 0 mm 2 mps 760 mmHg 83%
    01:00 +1°C° 0 mm 2 mps 760 mmHg 83%
    02:00 +1°C° 0 mm 2 mps 760 mmHg 82%
    03:00 0°C° 0 mm 3 mps 760 mmHg 81%
    04:00 +1°C° 0 mm 3 mps 759 mmHg 80%
    05:00 0°C° 0.2 mm 4 mps 759 mmHg 81%
    06:00 0°C° 0.2 mm 5 mps 759 mmHg 81%
    07:00 0°C° 0.2 mm 5 mps 758 mmHg 82%
    08:00 +1°C° 0.2 mm 6 mps 758 mmHg 82%
    09:00 0°C° 0.2 mm 7 mps 758 mmHg 81%
    10:00 0°C° 0.2 mm 8 mps 757 mmHg 81%
    11:00 +1°C° 0.2 mm 8 mps 757 mmHg 82%
    12:00 +1°C° 0.2 mm 8 mps 757 mmHg 83%
    13:00 +1°C° 0.2 mm 8 mps 756 mmHg 85%
    14:00 +2°C° 0.1 mm 8 mps 756 mmHg 88%
    15:00 +3°C° 0.1 mm 7 mps 756 mmHg 90%
    16:00 +3°C° 0.1 mm 7 mps 756 mmHg 93%
    17:00 +3°C° 0 mm 7 mps 756 mmHg 93%
    18:00 +3°C° 0 mm 7 mps 756 mmHg 93%
    19:00 +4°C° 0 mm 7 mps 756 mmHg 93%
    20:00 +3°C° 0 mm 7 mps 756 mmHg 93%
    21:00 +3°C° 0 mm 7 mps 756 mmHg 93%
    22:00 +3°C° 0 mm 7 mps 756 mmHg 93%
    23:00 +3°C° 0 mm 7 mps 756 mmHg 93%

    23 November, Thursday

    Time Temperature Precipitation Wind Pressure Humidity
    00:00 +3°C° 0 mm 7 mps 756 mmHg 93%
    01:00 +3°C° 0 mm 7 mps 756 mmHg 93%
    02:00 +3°C° 0 mm 7 mps 756 mmHg 92%
    03:00 +3°C° 0 mm 7 mps 755 mmHg 90%
    04:00 +3°C° 0 mm 7 mps 755 mmHg 89%
    05:00 +3°C° 0 mm 7 mps 756 mmHg 87%
    06:00 +3°C° 0 mm 7 mps 756 mmHg 86%
    07:00 +3°C° 0 mm 7 mps 756 mmHg 84%
    08:00 +4°C° 0 mm 7 mps 756 mmHg 81%
    09:00 +4°C° 0 mm 7 mps 756 mmHg 78%
    10:00 +5°C° 0 mm 7 mps 757 mmHg 76%
    11:00 +7°C° 0 mm 6 mps 757 mmHg 72%
    12:00 +7°C° 0 mm 6 mps 756 mmHg 68%
    13:00 +8°C° 0 mm 6 mps 756 mmHg 64%
    14:00 +8°C° 0 mm 6 mps 756 mmHg 66%
    15:00 +7°C° 0 mm 6 mps 756 mmHg 68%
    16:00 +5°C° 0 mm 6 mps 756 mmHg 70%
    17:00 +5°C° 0 mm 7 mps 756 mmHg 71%
    18:00 +5°C° 0 mm 7 mps 756 mmHg 72%
    19:00 +6°C° 0 mm 7 mps 756 mmHg 73%
    20:00 +6°C° 0 mm 7 mps 756 mmHg 73%
    21:00 +6°C° 0 mm 8 mps 756 mmHg 72%
    22:00 +6°C° 0 mm 8 mps 756 mmHg 71%
    23:00 +6°C° 0 mm 8 mps 756 mmHg 72%
    Show more